GPS BIIR-13 (PRN 02)

Last updated on Oct. 25, 2020, 5:56 a.m. UTC

1 28474U 04045A   20298.39702875 -.00000080  00000-0  00000+0 0  9998
2 28474  55.0551  47.6585 0202158 268.8283  98.7097  2.00579221117072
UTC
Height (km)
Latitude
Longitude
Inclination
Orbital Period
UTC large
Height (km)
Speed (km/s)
/
Latitude / Longitude
Inclination (degrees)
Orbital Period (minutes)
Azimuth
Elevation
Range (km)
Doppler Factor
iOS Compass Heading
iOS Angle

Next 30 passes for location: Hong Kong

Rise time Rise Azimuth (degrees) Set time Set Azimuth (degrees) Duration Max altitude (degrees)

No matching passes for this satellites